Voltar ao catálogo

STARLINK-37316

AtivoComunicaçõesSSO
NORAD 68673·PAYLOAD·🇺🇸 United States

Lançado Apr 11, 2026 de Vandenberg Space Force Base

Loading…

Próximas Passagens (próximas 24 horas)

TLE

AtualizadoSource: CelesTrak SupGP

Época: Sep 15, 2026, 03:05 UTC

1 68673C 26077M   26258.12895833  .00029909  00000+0  92827-3 0  2581
2 68673  97.2844 128.0937 0002185  95.2218 112.7253 15.33428770    11

Acompanhe STARLINK-37316 em tempo real com AllMySat

Download on the App Store